Location: Arbon
(43.0005°N, 0.7472°E)
Time: 14:47:18
(UTC+00:00)

Envisat - Pass Details

Date: 05 November 2020
Orbit: 764 x 766 km, 98.1° (Epoch: 30 November)

Event Time Altitude Azimuth Distance (km) Brightness Sun altitude
Rises 04:45:57 0° 29° (NNE) 3,240 6.6 -20.6°
Reaches altitude 10° 04:48:58 10° 47° (NE) 2,308 6.1 -20.1°
Maximum altitude 04:52:28 19° 91° (E) 1,782 5.9 -19.4°
Drops below altitude 10° 04:55:57 10° 135° (SE) 2,295 6.2 -18.8°
Sets 04:58:56 0° 154° (SSE) 3,216 6.7 -18.3°
